| time (UTC) | temp F | wind direction | speed MPH | gust MPH | rain 1hr in | rain 24hr in | rain mn in | humidity % | barometer mb |
| 20260905030027 | 69 | 53 | 3.0 | 5.0 | 0.00 | 0.00 | 0.00 | 88 | 1013.9 |
| 20260905025522 | 69 | 42 | 3.0 | 3.0 | 0.00 | 0.00 | 0.00 | 88 | 1013.9 |
| 20260905025018 | 69 | 342 | 4.0 | 6.0 | 0.00 | 0.00 | 0.00 | 88 | 1013.6 |
| 20260905024513 | 70 | 354 | 2.0 | 2.0 | 0.00 | 0.00 | 0.00 | 87 | 1013.7 |
| 20260905024008 | 70 | 37 | 3.0 | 3.0 | 0.00 | 0.00 | 0.00 | 87 | 1013.5 |
| 20260905023508 | 70 | 307 | 1.0 | 2.0 | 0.00 | 0.00 | 0.00 | 87 | 1013.6 |
| 20260905023003 | 70 | 45 | 3.0 | 3.0 | 0.00 | 0.00 | 0.00 | 86 | 1013.6 |
| 20260905022457 | 71 | 65 | 3.0 | 5.0 | 0.00 | 0.00 | 0.00 | 86 | 1013.1 |
| 20260905021953 | 71 | 55 | 1.0 | 2.0 | 0.00 | 0.00 | 0.00 | 86 | 1013.4 |
| 20260905021452 | 72 | 63 | 2.0 | 2.0 | 0.00 | 0.00 | 0.00 | 85 | 1013.0 |
| 20260905020947 | 72 | 248 | 1.0 | 1.0 | 0.00 | 0.00 | 0.00 | 85 | 1013.0 |
| 20260905020447 | 72 | 52 | 3.0 | 3.0 | 0.00 | 0.00 | 0.00 | 85 | 1013.1 |
| 20260905015942 | 73 | 118 | 1.0 | 1.0 | 0.00 | 0.00 | 0.00 | 85 | 1013.1 |
| 20260905015440 | 73 | 236 | 0.0 | 1.0 | 0.00 | 0.00 | 0.00 | 84 | 1012.9 |
| 20260905014939 | 73 | 76 | 2.0 | 2.0 | 0.00 | 0.00 | 0.00 | 84 | 1012.8 |
| 20260905014435 | 73 | 279 | 1.0 | 1.0 | 0.00 | 0.00 | 0.00 | 83 | 1012.9 |
| 20260905013930 | 74 | 198 | 0.0 | 1.0 | 0.00 | 0.00 | 0.00 | 83 | 1013.0 |
| 20260905013427 | 75 | 257 | 1.0 | 2.0 | 0.00 | 0.00 | 0.00 | 82 | 1012.7 |
| 20260905012921 | 75 | 38 | 2.0 | 3.0 | 0.00 | 0.00 | 0.00 | 82 | 1012.9 |
| 20260905012417 | 75 | 298 | 3.0 | 3.0 | 0.00 | 0.00 | 0.00 | 82 | 1012.5 |
| 20260905011914 | 75 | 239 | 1.0 | 1.0 | 0.00 | 0.00 | 0.00 | 82 | 1012.6 |
| 20260905011409 | 75 | 94 | 1.0 | 1.0 | 0.00 | 0.00 | 0.00 | 82 | 1012.5 |
| 20260905010904 | 76 | 181 | 1.0 | 1.0 | 0.00 | 0.00 | 0.00 | 82 | 1012.4 |
| 20260905010359 | 76 | 140 | 1.0 | 1.0 | 0.00 | 0.00 | 0.00 | 81 | 1012.3 |
| 20260905005855 | 76 | 218 | 0.0 | 0.0 | 0.00 | 0.00 | 0.00 | 81 | 1012.4 |
| 20260905005351 | 76 | 201 | 0.0 | 0.0 | 0.00 | 0.00 | 0.00 | 81 | 1012.3 |
| 20260905004845 | 77 | 205 | 0.0 | 0.0 | 0.00 | 0.00 | 0.00 | 80 | 1012.5 |
| 20260905004340 | 77 | 212 | 0.0 | 0.0 | 0.00 | 0.00 | 0.00 | 79 | 1012.1 |
| 20260905003835 | 78 | 210 | 0.0 | 0.0 | 0.00 | 0.00 | 0.00 | 78 | 1012.2 |
| 20260905003331 | 78 | 223 | 0.0 | 1.0 | 0.00 | 0.00 | 0.00 | 78 | 1012.2 |
| 20260905002827 | 78 | 201 | 0.0 | 1.0 | 0.00 | 0.00 | 0.00 | 77 | 1012.2 |
| 20260905002326 | 78 | 169 | 0.0 | 1.0 | 0.00 | 0.00 | 0.00 | 77 | 1012.3 |
| 20260905001821 | 79 | 63 | 2.0 | 2.0 | 0.00 | 0.00 | 0.00 | 76 | 1012.1 |
| 20260905001321 | 79 | 168 | 1.0 | 1.0 | 0.00 | 0.00 | 0.00 | 76 | 1012.2 |
| 20260905000816 | 79 | 52 | 1.0 | 2.0 | 0.00 | 0.00 | 0.00 | 76 | 1012.0 |
| 20260905000312 | 80 | 327 | 1.0 | 1.0 | 0.00 | 0.00 | 0.00 | 75 | 1012.0 |
| 20260904235807 | 80 | 171 | 1.0 | 1.0 | 0.00 | 0.00 | 0.00 | 75 | 1012.0 |
| 20260904235305 | 80 | 110 | 1.0 | 1.0 | 0.00 | 0.00 | 0.00 | 75 | 1011.7 |
| 20260904234757 | 81 | 46 | 3.0 | 3.0 | 0.00 | 0.00 | 0.00 | 74 | 1011.6 |
| 20260904234252 | 81 | 331 | 2.0 | 2.0 | 0.00 | 0.00 | 0.00 | 73 | 1011.7 |
| 20260904233747 | 81 | 354 | 1.0 | 2.0 | 0.00 | 0.00 | 0.00 | 73 | 1011.7 |
| 20260904233244 | 81 | 37 | 3.0 | 3.0 | 0.00 | 0.00 | 0.00 | 72 | 1011.8 |
| 20260904232740 | 82 | 190 | 1.0 | 1.0 | 0.00 | 0.00 | 0.00 | 73 | 1011.6 |
| 20260904232236 | 82 | 265 | 1.0 | 1.0 | 0.00 | 0.00 | 0.00 | 73 | 1011.7 |
| 20260904231731 | 82 | 185 | 1.0 | 1.0 | 0.00 | 0.00 | 0.00 | 73 | 1011.6 |
| 20260904231227 | 82 | 4 | 2.0 | 2.0 | 0.00 | 0.00 | 0.00 | 73 | 1011.4 |
| 20260904230726 | 82 | 310 | 1.0 | 2.0 | 0.00 | 0.00 | 0.00 | 71 | 1011.5 |
| 20260904230221 | 82 | 21 | 2.0 | 3.0 | 0.00 | 0.00 | 0.00 | 70 | 1011.4 |
| 20260904225720 | 82 | 43 | 2.0 | 2.0 | 0.00 | 0.00 | 0.00 | 71 | 1011.2 |
| 20260904225214 | 82 | 24 | 3.0 | 3.0 | 0.00 | 0.00 | 0.00 | 72 | 1011.3 |
| 20260904224713 | 82 | 69 | 3.0 | 3.0 | 0.00 | 0.00 | 0.00 | 71 | 1011.5 |
| 20260904224209 | 82 | 27 | 2.0 | 3.0 | 0.00 | 0.00 | 0.00 | 71 | 1011.4 |
| 20260904223708 | 82 | 69 | 5.0 | 7.0 | 0.00 | 0.00 | 0.00 | 71 | 1011.2 |
| 20260904223203 | 82 | 68 | 3.0 | 3.0 | 0.00 | 0.00 | 0.00 | 72 | 1011.2 |
| 20260904222659 | 82 | 12 | 3.0 | 5.0 | 0.00 | 0.00 | 0.00 | 71 | 1011.2 |
| 20260904222155 | 82 | 17 | 3.0 | 3.0 | 0.00 | 0.00 | 0.00 | 72 | 1011.2 |
| 20260904221654 | 82 | 46 | 2.0 | 2.0 | 0.00 | 0.00 | 0.00 | 73 | 1011.3 |
| 20260904221149 | 82 | 39 | 2.0 | 2.0 | 0.00 | 0.00 | 0.00 | 72 | 1011.1 |
| 20260904220643 | 83 | 230 | 1.0 | 1.0 | 0.00 | 0.00 | 0.00 | 74 | 1011.1 |
| 20260904220139 | 82 | 0 | 4.0 | 6.0 | 0.00 | 0.00 | 0.00 | 74 | 1011.3 |
| 20260904215633 | 82 | 213 | 0.0 | 1.0 | 0.00 | 0.00 | 0.00 | 72 | 1011.2 |
| 20260904215129 | 82 | 50 | 3.0 | 3.0 | 0.00 | 0.00 | 0.00 | 73 | 1011.1 |
| 20260904214629 | 82 | 11 | 3.0 | 3.0 | 0.00 | 0.00 | 0.00 | 73 | 1010.9 |
| 20260904214125 | 82 | 103 | 3.0 | 5.0 | 0.00 | 0.00 | 0.00 | 73 | 1011.3 |
| 20260904213623 | 82 | 230 | 0.0 | 0.0 | 0.00 | 0.00 | 0.00 | 73 | 1011.1 |
| 20260904213119 | 82 | 234 | 1.0 | 1.0 | 0.00 | 0.00 | 0.00 | 73 | 1011.2 |
| 20260904212614 | 82 | 21 | 3.0 | 5.0 | 0.00 | 0.00 | 0.00 | 72 | 1011.3 |
| 20260904212109 | 82 | 34 | 5.0 | 6.0 | 0.00 | 0.00 | 0.00 | 74 | 1011.3 |
| 20260904211608 | 81 | 19 | 3.0 | 3.0 | 0.00 | 0.00 | 0.00 | 73 | 1011.3 |
| 20260904211104 | 81 | 57 | 5.0 | 7.0 | 0.00 | 0.00 | 0.00 | 73 | 1011.2 |
| 20260904210604 | 81 | 291 | 1.0 | 2.0 | 0.00 | 0.00 | 0.00 | 73 | 1011.2 |
| 20260904210059 | 81 | 72 | 4.0 | 5.0 | 0.00 | 0.00 | 0.00 | 74 | 1011.3 |
| 20260904205555 | 81 | 39 | 1.0 | 1.0 | 0.00 | 0.00 | 0.00 | 75 | 1011.4 |
| 20260904205051 | 81 | 25 | 2.0 | 2.0 | 0.00 | 0.00 | 0.00 | 75 | 1011.4 |
| 20260904204547 | 81 | 40 | 3.0 | 5.0 | 0.00 | 0.00 | 0.00 | 75 | 1011.4 |
| 20260904204042 | 81 | 214 | 0.0 | 0.0 | 0.00 | 0.00 | 0.00 | 77 | 1011.3 |
| 20260904203538 | 81 | 92 | 1.0 | 1.0 | 0.00 | 0.00 | 0.00 | 81 | 1011.5 |
| 20260904203035 | 80 | 40 | 3.0 | 5.0 | 0.00 | 0.00 | 0.00 | 80 | 1011.5 |
| 20260904202530 | 80 | 34 | 3.0 | 3.0 | 0.00 | 0.00 | 0.00 | 79 | 1011.5 |
| 20260904202026 | 80 | 40 | 2.0 | 3.0 | 0.00 | 0.00 | 0.00 | 80 | 1011.2 |
| 20260904201521 | 80 | 6 | 2.0 | 2.0 | 0.00 | 0.00 | 0.00 | 80 | 1011.2 |
| 20260904201016 | 80 | 23 | 1.0 | 2.0 | 0.00 | 0.00 | 0.00 | 81 | 1011.4 |
| 20260904200514 | 80 | 50 | 5.0 | 6.0 | 0.00 | 0.00 | 0.00 | 79 | 1011.4 |
| 20260904200005 | 80 | 245 | 1.0 | 1.0 | 0.00 | 0.00 | 0.00 | 80 | 1011.6 |
| 20260904195503 | 80 | 227 | 2.0 | 3.0 | 0.00 | 0.00 | 0.00 | 80 | 1011.4 |
| 20260904195002 | 79 | 12 | 3.0 | 3.0 | 0.00 | 0.00 | 0.00 | 81 | 1011.4 |
| 20260904194457 | 79 | 325 | 1.0 | 1.0 | 0.00 | 0.00 | 0.00 | 83 | 1011.6 |
| 20260904193952 | 79 | 119 | 1.0 | 1.0 | 0.00 | 0.00 | 0.00 | 82 | 1011.5 |
| 20260904193447 | 78 | 337 | 3.0 | 3.0 | 0.00 | 0.00 | 0.00 | 82 | 1011.4 |
| 20260904192943 | 78 | 8 | 3.0 | 5.0 | 0.00 | 0.00 | 0.00 | 84 | 1011.5 |
| 20260904192437 | 78 | 37 | 2.0 | 3.0 | 0.00 | 0.00 | 0.00 | 82 | 1011.5 |
| 20260904191934 | 78 | 55 | 3.0 | 3.0 | 0.00 | 0.00 | 0.00 | 82 | 1011.5 |
| 20260904191430 | 78 | 78 | 3.0 | 3.0 | 0.00 | 0.00 | 0.00 | 83 | 1011.4 |
| 20260904190926 | 78 | 41 | 4.0 | 6.0 | 0.00 | 0.00 | 0.00 | 85 | 1011.7 |
| 20260904190421 | 77 | 44 | 3.0 | 3.0 | 0.00 | 0.00 | 0.00 | 85 | 1011.6 |
| 20260904185917 | 77 | 35 | 3.0 | 3.0 | 0.00 | 0.00 | 0.00 | 85 | 1011.6 |
| 20260904185413 | 77 | 53 | 3.0 | 5.0 | 0.00 | 0.00 | 0.00 | 85 | 1011.5 |
| 20260904184913 | 77 | 58 | 5.0 | 6.0 | 0.00 | 0.00 | 0.00 | 85 | 1011.8 |
| 20260904184408 | 76 | 22 | 1.0 | 2.0 | 0.00 | 0.00 | 0.00 | 86 | 1011.7 |
| 20260904183903 | 76 | 32 | 2.0 | 3.0 | 0.00 | 0.00 | 0.00 | 85 | 1011.7 |
| 20260904183358 | 76 | 24 | 4.0 | 5.0 | 0.00 | 0.00 | 0.00 | 86 | 1011.7 |
| 20260904182854 | 76 | 52 | 4.0 | 5.0 | 0.00 | 0.00 | 0.00 | 87 | 1011.5 |
| 20260904182348 | 76 | 46 | 3.0 | 5.0 | 0.00 | 0.00 | 0.00 | 87 | 1011.8 |
| 20260904181843 | 76 | 59 | 3.0 | 3.0 | 0.00 | 0.00 | 0.00 | 88 | 1011.7 |
| 20260904181338 | 75 | 58 | 3.0 | 3.0 | 0.00 | 0.00 | 0.00 | 88 | 1011.9 |
| 20260904180833 | 75 | 57 | 5.0 | 6.0 | 0.00 | 0.00 | 0.00 | 89 | 1011.8 |
| 20260904180329 | 75 | 34 | 3.0 | 5.0 | 0.00 | 0.00 | 0.00 | 89 | 1011.7 |
| 20260904175828 | 75 | 60 | 3.0 | 3.0 | 0.00 | 0.00 | 0.00 | 90 | 1011.7 |
| 20260904175326 | 75 | 61 | 5.0 | 6.0 | 0.00 | 0.00 | 0.00 | 90 | 1011.5 |
| 20260904174821 | 75 | 355 | 4.0 | 6.0 | 0.00 | 0.00 | 0.00 | 90 | 1011.7 |
| 20260904174317 | 75 | 42 | 3.0 | 5.0 | 0.00 | 0.00 | 0.00 | 90 | 1011.7 |
| 20260904173813 | 75 | 311 | 3.0 | 5.0 | 0.00 | 0.00 | 0.00 | 90 | 1011.5 |
| 20260904173308 | 75 | 38 | 3.0 | 3.0 | 0.00 | 0.00 | 0.00 | 90 | 1011.7 |
| 20260904172804 | 75 | 33 | 5.0 | 6.0 | 0.00 | 0.00 | 0.00 | 90 | 1011.6 |
| 20260904172305 | 75 | 59 | 3.0 | 6.0 | 0.00 | 0.00 | 0.00 | 90 | 1011.5 |
| 20260904171758 | 75 | 53 | 3.0 | 5.0 | 0.00 | 0.00 | 0.00 | 90 | 1011.7 |
| 20260904171253 | 75 | 34 | 2.0 | 3.0 | 0.00 | 0.00 | 0.00 | 90 | 1011.4 |
| 20260904170749 | 75 | 122 | 2.0 | 2.0 | 0.00 | 0.00 | 0.00 | 91 | 1011.5 |
| 20260904170245 | 74 | 41 | 4.0 | 6.0 | 0.00 | 0.00 | 0.00 | 91 | 1011.4 |
| 20260904165744 | 75 | 68 | 3.0 | 3.0 | 0.00 | 0.00 | 0.00 | 91 | 1011.4 |
| 20260904165238 | 74 | 342 | 1.0 | 2.0 | 0.00 | 0.00 | 0.00 | 91 | 1011.3 |
| 20260904164733 | 74 | 47 | 3.0 | 3.0 | 0.00 | 0.00 | 0.00 | 92 | 1011.3 |
| 20260904164228 | 74 | 17 | 3.0 | 3.0 | 0.00 | 0.00 | 0.00 | 92 | 1011.3 |
| 20260904163724 | 73 | 17 | 3.0 | 5.0 | 0.00 | 0.00 | 0.00 | 93 | 1011.3 |
| 20260904163219 | 73 | 352 | 4.0 | 6.0 | 0.00 | 0.00 | 0.00 | 94 | 1011.2 |
| 20260904162718 | 73 | 50 | 1.0 | 2.0 | 0.00 | 0.00 | 0.00 | 94 | 1011.1 |
| 20260904162213 | 72 | 83 | 2.0 | 2.0 | 0.00 | 0.00 | 0.00 | 95 | 1011.1 |
| 20260904161709 | 72 | 74 | 2.0 | 2.0 | 0.00 | 0.00 | 0.00 | 96 | 1011.1 |
| 20260904161203 | 71 | 61 | 3.0 | 3.0 | 0.00 | 0.00 | 0.00 | 97 | 1011.0 |
| 20260904160700 | 72 | 10 | 4.0 | 5.0 | 0.00 | 0.00 | 0.00 | 97 | 1010.9 |
| 20260904160155 | 71 | 39 | 2.0 | 2.0 | 0.00 | 0.00 | 0.00 | 98 | 1011.0 |
| 20260904155649 | 71 | 54 | 3.0 | 3.0 | 0.00 | 0.00 | 0.00 | 98 | 1010.8 |
| 20260904155149 | 71 | 342 | 1.0 | 1.0 | 0.00 | 0.00 | 0.00 | 98 | 1011.0 |
| 20260904154647 | 71 | 89 | 1.0 | 2.0 | 0.00 | 0.00 | 0.00 | 98 | 1010.9 |
| 20260904154142 | 71 | 354 | 4.0 | 5.0 | 0.00 | 0.00 | 0.00 | 99 | 1011.1 |
| 20260904153637 | 71 | 57 | 3.0 | 5.0 | 0.00 | 0.00 | 0.00 | 99 | 1010.7 |
| 20260904153132 | 71 | 336 | 1.0 | 2.0 | 0.00 | 0.00 | 0.00 | 99 | 1010.6 |
| 20260904152629 | 71 | 10 | 4.0 | 5.0 | 0.00 | 0.00 | 0.00 | 99 | 1010.7 |
| 20260904152124 | 71 | 30 | 3.0 | 3.0 | 0.00 | 0.00 | 0.00 | 99 | 1010.6 |
| 20260904151619 | 70 | 349 | 3.0 | 3.0 | 0.00 | 0.00 | 0.00 | 99 | 1010.7 |
| 20260904151118 | 71 | 294 | 3.0 | 3.0 | 0.00 | 0.00 | 0.00 | 99 | 1010.6 |
| 20260904150614 | 70 | 343 | 3.0 | 3.0 | 0.00 | 0.00 | 0.00 | 99 | 1010.5 |
| 20260904150109 | 70 | 276 | 2.0 | 2.0 | 0.00 | 0.00 | 0.00 | 99 | 1010.3 |
| 20260904145607 | 70 | 334 | 3.0 | 5.0 | 0.00 | 0.00 | 0.00 | 99 | 1010.3 |
| 20260904145102 | 70 | 303 | 1.0 | 1.0 | 0.00 | 0.00 | 0.00 | 99 | 1010.2 |
| 20260904144558 | 70 | 52 | 3.0 | 3.0 | 0.00 | 0.00 | 0.00 | 99 | 1010.3 |
| 20260904144054 | 70 | 269 | 1.0 | 1.0 | 0.00 | 0.00 | 0.00 | 99 | 1010.0 |
| 20260904143550 | 69 | 0 | 2.0 | 2.0 | 0.00 | 0.00 | 0.00 | 99 | 1010.2 |
| 20260904143046 | 69 | 217 | 1.0 | 1.0 | 0.00 | 0.00 | 0.00 | 99 | 1010.0 |
| 20260904142542 | 69 | 204 | 0.0 | 0.0 | 0.00 | 0.00 | 0.00 | 99 | 1010.1 |
| 20260904142037 | 69 | 203 | 0.0 | 0.0 | 0.00 | 0.00 | 0.00 | 99 | 1010.2 |
| 20260904141532 | 69 | 57 | 1.0 | 1.0 | 0.00 | 0.00 | 0.00 | 99 | 1010.1 |
| 20260904141028 | 69 | 307 | 2.0 | 2.0 | 0.00 | 0.00 | 0.00 | 99 | 1009.8 |
| 20260904140528 | 69 | 204 | 0.0 | 0.0 | 0.00 | 0.00 | 0.00 | 99 | 1009.5 |
| 20260904140022 | 69 | 215 | 0.0 | 0.0 | 0.00 | 0.00 | 0.00 | 99 | 1009.6 |
| 20260904135521 | 69 | 203 | 0.0 | 0.0 | 0.00 | 0.00 | 0.00 | 99 | 1009.6 |
| 20260904135018 | 68 | 209 | 0.0 | 0.0 | 0.00 | 0.00 | 0.00 | 99 | 1009.8 |
| 20260904134513 | 68 | 231 | 0.0 | 1.0 | 0.00 | 0.00 | 0.00 | 99 | 1009.9 |
| 20260904134007 | 68 | 150 | 1.0 | 1.0 | 0.00 | 0.00 | 0.00 | 99 | 1009.6 |
| 20260904133502 | 68 | 261 | 1.0 | 2.0 | 0.00 | 0.00 | 0.00 | 99 | 1009.8 |
| 20260904132958 | 68 | 147 | 1.0 | 1.0 | 0.00 | 0.00 | 0.00 | 99 | 1009.8 |
| 20260904132457 | 68 | 39 | 3.0 | 3.0 | 0.00 | 0.00 | 0.00 | 99 | 1009.6 |
| 20260904131952 | 68 | 147 | 1.0 | 1.0 | 0.00 | 0.00 | 0.00 | 99 | 1009.6 |
| 20260904131447 | 68 | 66 | 2.0 | 2.0 | 0.00 | 0.00 | 0.00 | 99 | 1009.5 |
| 20260904130943 | 68 | 208 | 0.0 | 0.0 | 0.00 | 0.00 | 0.00 | 99 | 1009.6 |
| 20260904130442 | 68 | 166 | 1.0 | 1.0 | 0.00 | 0.00 | 0.00 | 99 | 1009.9 |
| 20260904125937 | 68 | 357 | 1.0 | 2.0 | 0.00 | 0.00 | 0.00 | 99 | 1009.6 |
| 20260904125433 | 69 | 271 | 1.0 | 2.0 | 0.00 | 0.00 | 0.00 | 99 | 1009.6 |
| 20260904124933 | 69 | 234 | 1.0 | 2.0 | 0.00 | 0.00 | 0.00 | 99 | 1009.8 |
| 20260904124429 | 69 | 54 | 2.0 | 2.0 | 0.00 | 0.00 | 0.00 | 99 | 1009.4 |
| 20260904123925 | 69 | 38 | 2.0 | 2.0 | 0.00 | 0.00 | 0.00 | 99 | 1009.3 |
| 20260904123424 | 69 | 264 | 1.0 | 2.0 | 0.00 | 0.00 | 0.00 | 99 | 1009.4 |
| 20260904122920 | 69 | 344 | 1.0 | 2.0 | 0.00 | 0.00 | 0.00 | 99 | 1009.1 |
| 20260904122419 | 70 | 215 | 1.0 | 1.0 | 0.00 | 0.00 | 0.00 | 99 | 1009.0 |
| 20260904121914 | 70 | 190 | 1.0 | 1.0 | 0.00 | 0.00 | 0.00 | 99 | 1009.1 |
| 20260904121411 | 70 | 268 | 1.0 | 2.0 | 0.00 | 0.00 | 0.00 | 99 | 1009.1 |
| 20260904120907 | 70 | 64 | 1.0 | 2.0 | 0.00 | 0.00 | 0.00 | 99 | 1008.9 |
| 20260904120403 | 70 | 267 | 1.0 | 1.0 | 0.00 | 0.00 | 0.00 | 99 | 1009.0 |
| 20260904115858 | 70 | 60 | 2.0 | 2.0 | 0.00 | 0.00 | 0.00 | 99 | 1009.0 |
| 20260904115352 | 70 | 149 | 1.0 | 1.0 | 0.00 | 0.00 | 0.00 | 99 | 1008.8 |
| 20260904114847 | 71 | 245 | 1.0 | 1.0 | 0.00 | 0.00 | 0.00 | 99 | 1008.9 |
| 20260904114342 | 71 | 307 | 2.0 | 2.0 | 0.00 | 0.00 | 0.00 | 99 | 1008.8 |
| 20260904113837 | 71 | 181 | 0.0 | 1.0 | 0.00 | 0.00 | 0.00 | 99 | 1008.8 |
| 20260904113337 | 71 | 150 | 1.0 | 1.0 | 0.00 | 0.00 | 0.00 | 99 | 1008.4 |
| 20260904112832 | 71 | 212 | 0.0 | 0.0 | 0.00 | 0.00 | 0.00 | 99 | 1008.4 |
| 20260904112327 | 71 | 211 | 0.0 | 0.0 | 0.00 | 0.00 | 0.00 | 99 | 1008.5 |
| 20260904111822 | 71 | 66 | 1.0 | 2.0 | 0.00 | 0.00 | 0.00 | 99 | 1008.6 |
| 20260904111318 | 71 | 243 | 1.0 | 1.0 | 0.00 | 0.00 | 0.00 | 99 | 1008.6 |
| 20260904110814 | 71 | 222 | 0.0 | 1.0 | 0.00 | 0.00 | 0.00 | 99 | 1008.4 |
| 20260904110313 | 71 | 112 | 1.0 | 2.0 | 0.00 | 0.00 | 0.00 | 99 | 1008.6 |
| 20260904105807 | 71 | 200 | 0.0 | 1.0 | 0.00 | 0.00 | 0.00 | 99 | 1008.5 |
| 20260904105305 | 71 | 146 | 0.0 | 1.0 | 0.00 | 0.00 | 0.00 | 99 | 1008.6 |
| 20260904104757 | 71 | 200 | 3.0 | 3.0 | 0.00 | 0.00 | 0.00 | 99 | 1008.4 |
| 20260904104253 | 71 | 99 | 1.0 | 2.0 | 0.00 | 0.00 | 0.00 | 99 | 1008.4 |
| 20260904103750 | 71 | 220 | 1.0 | 2.0 | 0.00 | 0.00 | 0.00 | 99 | 1008.5 |
| 20260904103249 | 70 | 35 | 1.0 | 2.0 | 0.00 | 0.00 | 0.00 | 99 | 1008.6 |
| 20260904102745 | 70 | 220 | 0.0 | 1.0 | 0.00 | 0.00 | 0.00 | 99 | 1008.4 |
| 20260904102241 | 70 | 32 | 1.0 | 1.0 | 0.00 | 0.00 | 0.00 | 99 | 1008.5 |
| 20260904101737 | 70 | 215 | 0.0 | 0.0 | 0.00 | 0.00 | 0.00 | 99 | 1008.2 |
| 20260904101232 | 70 | 232 | 1.0 | 1.0 | 0.00 | 0.00 | 0.00 | 98 | 1008.3 |
| 20260904100728 | 70 | 213 | 0.0 | 0.0 | 0.00 | 0.00 | 0.00 | 99 | 1008.0 |
| 20260904100224 | 70 | 220 | 0.0 | 0.0 | 0.00 | 0.00 | 0.00 | 99 | 1008.4 |
| 20260904095723 | 71 | 173 | 0.0 | 1.0 | 0.00 | 0.00 | 0.00 | 98 | 1008.3 |
| 20260904095218 | 70 | 210 | 1.0 | 1.0 | 0.00 | 0.00 | 0.00 | 99 | 1008.1 |
| 20260904094714 | 70 | 207 | 0.0 | 0.0 | 0.00 | 0.00 | 0.00 | 98 | 1008.7 |
| 20260904094214 | 70 | 208 | 0.0 | 0.0 | 0.00 | 0.00 | 0.00 | 98 | 1008.3 |
| 20260904093710 | 70 | 219 | 0.0 | 0.0 | 0.00 | 0.00 | 0.00 | 98 | 1008.2 |
| 20260904093210 | 71 | 219 | 0.0 | 0.0 | 0.00 | 0.00 | 0.00 | 98 | 1008.3 |
| 20260904092706 | 70 | 207 | 0.0 | 0.0 | 0.00 | 0.00 | 0.00 | 98 | 1008.4 |
| 20260904092202 | 70 | 222 | 0.0 | 0.0 | 0.00 | 0.00 | 0.00 | 98 | 1008.4 |
| 20260904091657 | 70 | 201 | 0.0 | 0.0 | 0.00 | 0.00 | 0.00 | 98 | 1008.5 |
| 20260904091152 | 70 | 206 | 0.0 | 1.0 | 0.00 | 0.00 | 0.00 | 98 | 1008.5 |
| 20260904090647 | 70 | 331 | 2.0 | 2.0 | 0.00 | 0.00 | 0.00 | 98 | 1008.5 |
| 20260904090143 | 70 | 210 | 1.0 | 1.0 | 0.00 | 0.00 | 0.00 | 98 | 1008.3 |
| 20260904085638 | 68 | 317 | 3.0 | 3.0 | 0.00 | 0.00 | 0.00 | 98 | 1008.5 |
| 20260904085138 | 69 | 173 | 0.0 | 1.0 | 0.00 | 0.00 | 0.00 | 98 | 1008.2 |
| 20260904084633 | 69 | 206 | 0.0 | 0.0 | 0.00 | 0.00 | 0.00 | 97 | 1007.9 |
| 20260904084129 | 69 | 206 | 0.0 | 0.0 | 0.00 | 0.00 | 0.00 | 97 | 1007.9 |
| 20260904083626 | 69 | 206 | 0.0 | 1.0 | 0.00 | 0.00 | 0.00 | 97 | 1007.8 |
| 20260904083121 | 69 | 207 | 0.0 | 0.0 | 0.00 | 0.00 | 0.00 | 97 | 1007.8 |
| 20260904082616 | 69 | 207 | 0.0 | 0.0 | 0.00 | 0.00 | 0.00 | 97 | 1007.7 |
| 20260904082112 | 69 | 207 | 0.0 | 0.0 | 0.00 | 0.00 | 0.00 | 97 | 1007.4 |
| 20260904081607 | 69 | 207 | 0.0 | 0.0 | 0.00 | 0.00 | 0.00 | 97 | 1007.6 |
| 20260904081102 | 70 | 207 | 0.0 | 0.0 | 0.00 | 0.00 | 0.00 | 97 | 1007.6 |
| 20260904080558 | 70 | 207 | 0.0 | 0.0 | 0.00 | 0.00 | 0.00 | 97 | 1007.5 |
| 20260904080054 | 71 | 207 | 0.0 | 0.0 | 0.00 | 0.00 | 0.00 | 97 | 1007.6 |
| 20260904075550 | 71 | 207 | 0.0 | 0.0 | 0.00 | 0.00 | 0.00 | 97 | 1007.5 |
| 20260904075049 | 71 | 207 | 1.0 | 1.0 | 0.00 | 0.00 | 0.00 | 97 | 1007.4 |
| 20260904074549 | 70 | 207 | 0.0 | 0.0 | 0.00 | 0.00 | 0.00 | 97 | 1007.5 |
| 20260904074044 | 70 | 207 | 0.0 | 0.0 | 0.00 | 0.00 | 0.00 | 96 | 1007.5 |
| 20260904073538 | 71 | 207 | 0.0 | 0.0 | 0.00 | 0.00 | 0.00 | 96 | 1007.6 |
| 20260904073035 | 71 | 207 | 0.0 | 0.0 | 0.00 | 0.00 | 0.00 | 96 | 1007.8 |
| 20260904072531 | 71 | 207 | 0.0 | 0.0 | 0.00 | 0.00 | 0.00 | 96 | 1007.6 |
| 20260904072026 | 71 | 207 | 0.0 | 0.0 | 0.00 | 0.00 | 0.00 | 96 | 1007.7 |
| 20260904071522 | 71 | 207 | 0.0 | 0.0 | 0.00 | 0.00 | 0.00 | 96 | 1007.6 |
| 20260904071016 | 72 | 194 | 0.0 | 0.0 | 0.00 | 0.00 | 0.00 | 95 | 1007.6 |
| 20260904070515 | 71 | 182 | 0.0 | 1.0 | 0.00 | 0.00 | 0.00 | 95 | 1007.7 |
| 20260904070010 | 72 | 206 | 0.0 | 0.0 | 0.00 | 0.00 | 0.00 | 95 | 1007.6 |
| 20260904065505 | 72 | 207 | 0.0 | 0.0 | 0.00 | 0.00 | 0.00 | 95 | 1007.6 |
| 20260904065001 | 72 | 207 | 0.0 | 0.0 | 0.00 | 0.00 | 0.00 | 94 | 1007.7 |
| 20260904064456 | 72 | 206 | 0.0 | 0.0 | 0.00 | 0.00 | 0.00 | 94 | 1007.7 |
| 20260904063951 | 73 | 206 | 0.0 | 0.0 | 0.00 | 0.00 | 0.00 | 94 | 1007.8 |
| 20260904063448 | 73 | 206 | 0.0 | 0.0 | 0.00 | 0.00 | 0.00 | 94 | 1007.9 |
| 20260904062943 | 73 | 207 | 0.0 | 0.0 | 0.00 | 0.00 | 0.00 | 94 | 1007.7 |
| 20260904062439 | 73 | 206 | 0.0 | 0.0 | 0.00 | 0.00 | 0.00 | 94 | 1007.8 |
| 20260904061934 | 73 | 207 | 0.0 | 0.0 | 0.00 | 0.00 | 0.00 | 94 | 1007.7 |
| 20260904061431 | 73 | 196 | 0.0 | 0.0 | 0.00 | 0.00 | 0.00 | 93 | 1007.8 |
| 20260904060926 | 73 | 204 | 0.0 | 0.0 | 0.00 | 0.00 | 0.00 | 93 | 1007.7 |
| 20260904060422 | 73 | 204 | 0.0 | 0.0 | 0.00 | 0.00 | 0.00 | 93 | 1007.8 |
| 20260904055917 | 74 | 204 | 0.0 | 0.0 | 0.00 | 0.00 | 0.00 | 92 | 1007.8 |
| 20260904055413 | 74 | 197 | 0.0 | 0.0 | 0.00 | 0.00 | 0.00 | 92 | 1007.8 |
| 20260904054909 | 74 | 196 | 0.0 | 0.0 | 0.00 | 0.00 | 0.00 | 92 | 1007.7 |
| 20260904054404 | 74 | 191 | 0.0 | 0.0 | 0.00 | 0.00 | 0.00 | 91 | 1007.5 |
| 20260904053900 | 74 | 215 | 0.0 | 0.0 | 0.00 | 0.00 | 0.00 | 91 | 1007.5 |
| 20260904053358 | 75 | 205 | 0.0 | 0.0 | 0.00 | 0.00 | 0.00 | 91 | 1007.5 |
| 20260904052855 | 75 | 206 | 0.0 | 1.0 | 0.00 | 0.00 | 0.00 | 91 | 1007.7 |
| 20260904052351 | 74 | 202 | 1.0 | 1.0 | 0.00 | 0.00 | 0.00 | 91 | 1007.5 |
| 20260904051847 | 74 | 202 | 0.0 | 0.0 | 0.00 | 0.00 | 0.00 | 91 | 1007.5 |
| 20260904051342 | 75 | 174 | 0.0 | 0.0 | 0.00 | 0.00 | 0.00 | 91 | 1007.6 |
| 20260904050837 | 75 | 224 | 0.0 | 0.0 | 0.00 | 0.00 | 0.00 | 91 | 1007.7 |
| 20260904050334 | 75 | 198 | 0.0 | 0.0 | 0.00 | 0.00 | 0.00 | 90 | 1007.4 |
| 20260904045834 | 75 | 198 | 0.0 | 0.0 | 0.00 | 0.02 | 0.02 | 90 | 1007.3 |
| 20260904045329 | 75 | 198 | 0.0 | 0.0 | 0.00 | 0.02 | 0.02 | 90 | 1007.5 |
| 20260904044829 | 75 | 198 | 0.0 | 0.0 | 0.00 | 0.02 | 0.02 | 89 | 1007.2 |
| 20260904044325 | 75 | 198 | 0.0 | 0.0 | 0.00 | 0.02 | 0.02 | 89 | 1007.5 |
| 20260904043821 | 76 | 198 | 0.0 | 0.0 | 0.00 | 0.02 | 0.02 | 88 | 1007.5 |
| 20260904043318 | 76 | 198 | 0.0 | 0.0 | 0.00 | 0.02 | 0.02 | 87 | 1007.4 |
| 20260904042812 | 77 | 198 | 0.0 | 0.0 | 0.00 | 0.02 | 0.02 | 87 | 1007.1 |
| 20260904042309 | 77 | 198 | 0.0 | 0.0 | 0.00 | 0.02 | 0.02 | 86 | 1007.3 |
| 20260904041808 | 77 | 198 | 0.0 | 1.0 | 0.00 | 0.02 | 0.02 | 86 | 1007.4 |
| 20260904041305 | 77 | 205 | 0.0 | 0.0 | 0.00 | 0.02 | 0.02 | 85 | 1007.4 |
| 20260904040800 | 77 | 218 | 0.0 | 0.0 | 0.00 | 0.02 | 0.02 | 85 | 1007.4 |
| 20260904040255 | 77 | 198 | 0.0 | 1.0 | 0.00 | 0.02 | 0.02 | 85 | 1007.3 |
| 20260904035752 | 78 | 192 | 1.0 | 1.0 | 0.00 | 0.02 | 0.02 | 85 | 1007.3 |
| 20260904035247 | 78 | 209 | 0.0 | 0.0 | 0.00 | 0.02 | 0.02 | 85 | 1007.2 |
| 20260904034745 | 78 | 204 | 1.0 | 1.0 | 0.00 | 0.02 | 0.02 | 85 | 1007.2 |
| 20260904034242 | 78 | 214 | 1.0 | 1.0 | 0.00 | 0.02 | 0.02 | 85 | 1007.2 |
| 20260904033737 | 78 | 201 | 0.0 | 0.0 | 0.00 | 0.02 | 0.02 | 84 | 1007.2 |
| 20260904033234 | 78 | 205 | 1.0 | 1.0 | 0.00 | 0.02 | 0.02 | 83 | 1007.2 |
| 20260904032730 | 78 | 195 | 1.0 | 1.0 | 0.00 | 0.02 | 0.02 | 83 | 1007.2 |
| 20260904032228 | 78 | 205 | 1.0 | 1.0 | 0.00 | 0.02 | 0.02 | 83 | 1007.2 |
| 20260904031723 | 78 | 194 | 1.0 | 1.0 | 0.00 | 0.02 | 0.02 | 83 | 1007.0 |
| 20260904031219 | 78 | 208 | 1.0 | 2.0 | 0.00 | 0.02 | 0.02 | 84 | 1007.3 |
| 20260904030715 | 78 | 190 | 1.0 | 1.0 | 0.00 | 0.02 | 0.02 | 84 | 1007.4 |